Showing default

IONOSFERA-M 01, 61735

Orbit data source: Space-Track

IONOSFERA-M 01, 61735 is a payload satellite owned by VNIIEM (CIS) in SSO that was launched on Mon, 04 Nov 2024 UTC via a SOYUZ-2-1B launch vehicle from the Vostochny Cosmodrome (VOSTO). Payload-class satellites include a variety of spacecraft equipped with specific instruments for various scientific and technological missions. These include communications satellites like Starlink; space stations such as the ISS; scientific satellites like the Hubble; Earth observation satellites from companies like Planet Labs, Umbra, and HawkEye 360; GPS; miniature CubeSats for education and research; and military/defense satellites.

Loading next visibility...
Identifier
61735, 2024-199A
Orbit
SSO
Country
Flag of CISCIS
Related business
Manufacturer
VNIIEM
Mission
Operational Civil Science
Bus & Motor
IONOSFERA-M, Unknown motor
Mass
430 kg wet, 430 kg dry
Launch date (UTC)
2024-11-04 (1 year ago)
Launch vehicle
SOYUZ-2-1B
Launch site
Vostochny Cosmodrome (VOSTO)
Object type
Payload
Rocket body
Debris
Shape & HBR
Box + 1 Ant, 5.0 m
Radar Cross Section
2.359 m², Large (>1 m²)

Expand to show TLE details & history
Last TLE update: 6 hours ago

TLE from 6 hours ago
0 IONOSFERA-M 01
1 61735U 24199A   25312.85919374  .00000115  00000-0  71115-4 0  9992
2 61735  98.7439 182.9625 0002031  70.4073 289.7324 14.22702303 96378
Epoch: 2025-11-08T20:37Z
TLE epoch observation values (Epoch: 2025-11-08T20:37:14.339Z)
Latitude
-0°
Longitude
-174.63001°
Altitude
818.652 km
Speed
7.444 km/s
True Right ascension
12h 11m 51s
True Declination
0° 00' 00"
Sunlit
Object was in daylight at epoch
Visualization orbit readout
Latitude
Unknown
Longitude
Unknown
Altitude
Unknown
Speed
Unknown
Apparent Right ascension
Unknown
Apparent Declination
Unknown
Sunlit
N/A
Visualization observer readout
Local Sidereal Time
22:47:05
Azimuth
Unknown
Elevation
Unknown
Doppler factor
Unknown
Orbital elements
Apogee altitude
814.846 km
Perigee altitude
811.924 km
Semi-major axis
7,191.522 km
Eccentricity
0.0002
Inclination
98.7439°
RAAN
182.9625°
Arg. of periapsis
70.4073°
True anomaly
289.71049°
Mean anomaly
289.7324°
Eccentric anomaly
289.72145°
Mean motion
3.55887 °/min
Orbital period
101.16 mins
BSTAR
0.000071115
Loading maneuver chart data...
Computing Atmospheric mass density...
Loading historical data...
Loading historical data...
Loading historical data...
Loading historical data...
Loading historical data...
Loading historical data...
Loading historical data...

Documentation

Showing up to 5 results
|